Regional Weather Roundup
Issued by NWS

Home | Current Version | Previous Version | Graphics & Text | Print | Product List | Glossary On
Versions: 1 2 3 4 5 6 7 8 9 10 11 12 13 14 15 16 17 18 19 20 21 22 23 24 25 26 27 28 29 30 31 32 33 34 35 36 37 38 39 40 41 42 43 44 45 46 47 48 49 50
000
ASUS43 KOAX 231810
RWRNE

WEATHER ROUNDUP FOR NEBRASKA
NATIONAL WEATHER SERVICE OMAHA NE
100 PM CDT TUE SEP 23 2014

NOTES: SATELLITE DATA IS BEING USED TO AUGMENT CLOUD COVER ABOVE
       12000 FEET.
       "FAIR" INDICATES FEW OR NO CLOUDS BELOW 12,000 FEET WITH NO
       SIGNIFICANT WEATHER AND/OR OBSTRUCTIONS TO VISIBILITY.

  * THESE STATIONS DO NOT REPORT WEATHER SUCH AS RAIN...SNOW OR FOG.

NEZ001>004-019>022-054>056-231900-
NEBRASKA PANHANDLE

CITY           SKY/WX    TMP DP  RH WIND       PRES   REMARKS
SCOTTSBLUFF    SUNNY     77  51  40 W12       30.02F
6HR MIN TEMP:  49; 6HR MAX TEMP:  77;

ALLIANCE       SUNNY     78  47  33 NW12      29.99F
6HR MIN TEMP:  44; 6HR MAX TEMP:  79;

CHADRON        CLOUDY    70  53  54 NW12      29.97S
6HR MIN TEMP:  55; 6HR MAX TEMP:  74; 6HR PCP: TRACE;

KIMBALL        SUNNY     77  43  29 W22       30.07S
SIDNEY         SUNNY     81  46  29 NW14G24   30.06F
6HR MIN TEMP:  55; 6HR MAX TEMP:  81;

$$

NEZ057>060-069>072-079>082-231900-
SOUTHWEST NEBRASKA

CITY           SKY/WX    TMP DP  RH WIND       PRES   REMARKS
NORTH PLATTE   SUNNY     75  59  57 S9        29.99F
6HR MIN TEMP:  54; 6HR MAX TEMP:  75;

IMPERIAL       SUNNY     82  49  31 NW15      30.01F
6HR MIN TEMP:  58; 6HR MAX TEMP:  82;

LEXINGTON      SUNNY     70  59  68 S13G21    30.02F
MCCOOK         SUNNY     74  61  63 S8        30.01F
6HR MIN TEMP:  54; 6HR MAX TEMP:  74;

OGALLALA       SUNNY     82  50  32 W9G17     29.99F
$$

NEZ005>010-023>029-035>040-094-231900-
NORTH CENTRAL NEBRASKA

CITY           SKY/WX    TMP DP  RH WIND       PRES   REMARKS
VALENTINE      PTSUNNY   72  58  61 S14       29.91F
6HR MIN TEMP:  56; 6HR MAX TEMP:  72;

AINSWORTH      MOSUNNY   68  57  68 S17G24    29.94F
BROKEN BOW     CLOUDY    69  58  67 S16G24    30.00F
6HR MIN TEMP:  57; 6HR MAX TEMP:  69;

O`NEILL        CLOUDY    64  58  82 S17G25    30.02F
ORD            CLOUDY    63  56  78 S16G22    30.02F
6HR MIN TEMP:  56; 6HR MAX TEMP:  63; 6HR PCP: TRACE;

THEDFORD       MOSUNNY   75  58  55 SW9       29.97F
$$

NEZ041-046>049-061>064-073>077-083>087-231900-
SOUTH CENTRAL NEBRASKA

CITY           SKY/WX    TMP DP  RH WIND       PRES   REMARKS
GRAND ISLAND   CLOUDY    66  55  67 S20G26    30.06F
6HR MIN TEMP:  57; 6HR MAX TEMP:  66;

AURORA         CLOUDY    66  56  69 S18       30.07F
HASTINGS       PTSUNNY   66  54  65 S15G23    30.06F
6HR MIN TEMP:  56; 6HR MAX TEMP:  66;

HEBRON         CLOUDY    62  56  79 S14G21    30.11F
HOLDREGE       PTSUNNY   67  55  64 S14       30.04F
KEARNEY *      PTSUNNY   64  55  72 S20       30.05F
YORK           CLOUDY    64  57  77 S13       30.10F
$$

NEZ011>018-030>034-042>045-231900-
NORTHEAST NEBRASKA

CITY           SKY/WX    TMP DP  RH WIND       PRES   REMARKS
NORFOLK        CLOUDY    62  58  86 S16       30.08F
6HR MIN TEMP:  56; 6HR MAX TEMP:  62; 6HR PCP:  0.47;

ALBION         CLOUDY    60  57  89 S17       30.06F
BLAIR          CLOUDY    61  57  88 E7        30.16F
COLUMBUS *     CLOUDY    61  55  82 S12G20    30.11F
FREMONT        CLOUDY    60  58  92 SE9       30.14S
TEKAMAH        CLOUDY    59  57  93 SE12      30.16F
6HR MIN TEMP:  59; 6HR MAX TEMP:  63; 6HR PCP:  0.27;

WAYNE          CLOUDY    60  58  92 S12G21    30.11S
$$

NEZ050>053-065>068-078-088>093-231900-
SOUTHEAST NEBRASKA

CITY           SKY/WX    TMP DP  RH WIND       PRES   REMARKS
LINCOLN        PTSUNNY   69  58  67 S20G26    30.13F
6HR MIN TEMP:  59; 6HR MAX TEMP:  69; 6HR PCP:  0.21;

OMAHA EPPLEY   CLOUDY    64  57  78 SE7       30.17F
6HR MIN TEMP:  60; 6HR MAX TEMP:  64; 6HR PCP:  0.05;

BEATRICE       PTSUNNY   66  55  67 S13G23    30.14S
FALLS CITY     CLOUDY    71  55  56 S14G22    30.17F
6HR MIN TEMP:  56; 6HR MAX TEMP:  71; 6HR PCP: TRACE;

NEBRASKA CITY    N/A     70  49  46 S16       30.16F
PLATTSMOUTH    PTSUNNY   67  54  61 SE12G18   30.16F
$$

NEZ044-045-051>053-067-231900-
OMAHA AREA

CITY           SKY/WX    TMP DP  RH WIND       PRES   REMARKS
OMAHA EPPLEY   CLOUDY    64  57  78 SE7       30.17F
6HR MIN TEMP:  60; 6HR MAX TEMP:  64; 6HR PCP:  0.05;

BLAIR          CLOUDY    61  57  88 E7        30.16F
FREMONT        CLOUDY    60  58  92 SE9       30.14S
MILLARD        CLOUDY    63  57  83 SE9       30.15F
OFFUTT AFB     CLOUDY    66  62  87 SE10      30.16S
PLATTSMOUTH    PTSUNNY   67  54  61 SE12G18   30.16F
WAHOO          CLOUDY    61  56  85 SE8       30.13F
$$



USA.gov is the U.S. government's official web portal to all federal, state and local government web resources and services.